Location: Shenandoah County Park
(38.9356°N, 78.4524°W)
Time: 01:23:51
(UTC-05:00)

Transit 2A Rocket - Visible Passes

Search period start: 06 February 2023 00:00
Search period end: 16 February 2023 00:00
Orbit: 585 x 915 km, 66.7° (Epoch: 05 February)

Date Brightness Start Highest point End Pass type
(mag) Time Alt. Az. Time Alt. Az. Time Alt. Az.
07 Feb 7.6 06:15:25 10° N 06:19:40 19° NE 06:23:56 10° E visible
08 Feb 7.8 05:33:25 10° NNE 05:36:03 13° NE 05:38:41 10° ENE visible
09 Feb 6.7 06:31:01 10° NNW 06:36:39 38° NE 06:42:15 10° ESE visible
10 Feb 7.4 05:48:22 10° N 05:53:15 25° NE 05:58:09 10° ESE visible
11 Feb 7.8 05:06:01 10° N 05:09:44 16° NE 05:13:27 10° E visible
12 Feb 8.0 04:24:36 10° NNE 04:26:02 11° NE 04:27:29 10° NE visible
12 Feb 6.3 06:04:12 10° NNW 06:10:06 49° NE 06:15:58 10° SE visible
13 Feb 7.0 05:21:25 10° N 05:26:47 32° NE 05:32:08 10° ESE visible
14 Feb 7.6 04:38:51 10° N 04:43:20 21° NE 04:47:49 10° E visible
14 Feb 5.4 06:20:29 10° NNW 06:26:36 77° WSW 06:32:37 10° SSE visible
15 Feb 7.9 03:56:42 10° N 03:59:45 14° NE 04:02:47 10° ENE visible
15 Feb 5.7 05:37:24 10° NNW 05:43:30 66° ENE 05:49:30 10° SE visible
15 Feb 7.0 20:10:22 10° SSW 20:11:07 15° S 20:11:07 15° S visible
